Real Time Station Status

Last Communication Time: 2024-07-14T02:39:00.773Z

# Data Series Sample Time value Symbol
1 Img Dielectric Perimittivity 2020-09-11T06:10:38+00:00 3.136
2 Real Dielectric Perimittivity 2020-09-11T06:10:38+00:00 7.794
3 Soil Moisture 2024-07-14T02:30:00+00:00 0.230000004172 Wfv
4 Soil Temperature 2024-07-14T02:30:00+00:00 29.7999992371 °C
5 Soil Conductivity 2024-07-14T02:30:00+00:00 0.0130000002682 S/m
6 Solar Radiation Inst 2024-07-14T02:30:00+00:00 716.299987793 W/m2
7 Pressure Inst 2024-07-14T02:30:00+00:00 997.599975586 hPa
8 Rainfall 2024-07-14T02:30:00+00:00 0.0 mm
9 Relative Humidity Inst 2024-07-14T02:30:00+00:00 81.5 %
10 Air Temperature Inst 2024-07-14T02:30:00+00:00 31.1000003815 °C
11 Wind Direction Inst 2024-07-14T02:30:00+00:00 140.100006104 °
12 Wind Speed Inst 2024-07-14T02:30:00+00:00 2.79999995232 m/s
13 Wind Direction Avg 2024-07-14T02:30:00+00:00 135.499420166 °
14 Wind Speed Avg 2024-07-14T02:30:00+00:00 1.39681756496 m/s
15 Relative Humidity 10 min avg 2024-07-14T02:30:00+00:00 83.8399887085 %
16 Relative Humidity Minm 2024-07-14T02:30:00+00:00 81.5999984741 %
17 Relative Humidity Max 2024-07-14T02:30:00+00:00 86.1999969482 %
18 Air Temperature Max 2024-07-14T02:30:00+00:00 31.1000003815 °C
19 Air Temperature Minm 2024-07-14T02:30:00+00:00 30.0 °C
20 Air Temperature Avg 2024-07-14T02:30:00+00:00 30.5799980164 °C
21 Supply Voltage 2024-07-14T02:00:00+00:00 14.1899995804 V
22 Battery Voltage 2024-07-14T02:00:00+00:00 14.0241422653 V
23 Load Current 2024-07-14T02:00:00+00:00 219.350006104 mA
24 Charging Current 2024-07-14T02:00:00+00:00 19.0499992371 mA
25 PV Voltage 2024-07-14T02:00:00+00:00 19.0499992371 V
Observation
Select Data Series
To Date
To Date
Action
# Perameter Record Time Value Unit
Todays Statistics
Total Precipitation
-
Current Temperature
-
Real Feel
Current Relative Humidity
-
Current Wind Speed
-
Todays Rainfall Graph
Todays Temperature Graph
Todays Relative Humidity Graph
Todays Wind Speed Graph
Todays Heat Index Graph